User: anonymous   Login
Location: Kerguer�zec
(48.4509°N, 4.7600°W)
Time: 13:33:19
(UTC+00:00)
Language:

Meteor 1-27 - Orbit

View from above orbital plane
View from above orbital plane
View from above satellite
View from above satellite

Ground track
Ground track

The orbit data is extracted from the following two-line orbital elements,

1  9903U 77024A   20191.80775928 +.00000070 +00000-0 +33539-4 0  9994
2  9903 081.2631 077.7464 0039518 010.9689 349.2332 14.08320940222326
Epoch (UTC): 09 July 2020 19:23:10
Eccentricity: 0.0039518
inclination: 81.2631°
perigee height: 836 km
apogee height: 894 km
right ascension of ascending node: 77.7464°
argument of perigee: 10.9689°
revolutions per day: 14.08320940
mean anomaly at epoch: 349.2332°
orbit number at epoch: 22232

The dashed part of the orbit path shows where the satellite is in the earth's shadow,  

DLR